Regional Weather Roundup
Issued by NWS Columbia, SC

Home | Current Version | Previous Version | Text Only | Print | Product List | Glossary On
Versions: 1 2 3 4 5 6 7 8 9 10 11 12 13 14 15 16 17 18 19 20 21 22 23 24 25 26 27 28 29 30 31 32 33 34 35 36 37 38 39 40 41 42 43 44 45 46 47 48 49 50
000
ASUS42 KCAE 020810
RWRCAE
REGIONAL WEATHER ROUNDUP
NATIONAL WEATHER SERVICE COLUMBIA SC
400 AM EDT THU JUL 02 2015

NOTE: "FAIR" INDICATES FEW OR NO CLOUDS BELOW 12,000 FEET WITH NO
SIGNIFICANT WEATHER AND/OR OBSTRUCTIONS TO VISIBILITY.

NOT ALL STATIONS ARE QUALITY CONTROLLED BY THE NATIONAL
WEATHER SERVICE. USE DATA WITH CAUTION...ESPECIALLY
DEWPOINT OBSERVATIONS.

SCZ001>056-GAZ040-063>065-077-020900-
...UPSTATE SOUTH CAROLINA...

CITY           SKY/WX    TMP DP  RH WIND       PRES   REMARKS
ANDERSON       CLOUDY    71  68  90 SW6       29.99F
SPARTANBURG      N/A     72  66  83 SW6       29.97S
CLEMSON        CLOUDY    71  66  84 W9        30.00F
GREENVILLE     CLOUDY    71  64  78 W7        29.99F
GREENWOOD      CLOUDY    69  68  96 SW6       30.00F FOG
GREER          CLOUDY    71  65  81 SW8       29.96F
ROCK HILL      CLOUDY    71  64  78 SW7       29.96F
CHESTER        CLOUDY    72  64  78 SW3       29.97S
LAURENS        CLOUDY    70  70 100 SW5       29.98S


...CENTRAL SOUTH CAROLINA...

CITY           SKY/WX    TMP DP  RH WIND       PRES   REMARKS
COLUMBIA APT   CLOUDY    75  66  73 W7        29.96F
COLUMBIA OWENS CLOUDY    76  66  71 W5        29.98S
DARLINGTON     CLOUDY    75  66  73 SW10      29.94S
FLORENCE       CLOUDY    76  71  85 SW6       29.94F
MCENTIRE ANGB  CLOUDY    74  69  85 SW5       29.96F
ORANGEBURG     CLOUDY    74  69  85 SW7       29.99S
SUMTER SHAW    CLOUDY    75  69  82 SW8       29.94F
NEWBERRY       CLOUDY    64  64 100 SW7       30.00F
BARNWELL       FAIR      73  66  78 SW5       30.00S
MANNING        FAIR      73  70  88 SW5       29.97S
CAMDEN         FAIR      73  66  78 W3        29.97S
LANCASTER      CLOUDY    72  68  88 SW7       29.96F
WINNSBORO      CLOUDY    70  68  94 SW6       29.98S


...EASTERN AND COASTAL SOUTH CAROLINA...

CITY           SKY/WX    TMP DP  RH WIND       PRES   REMARKS
MYRTLE BEACH   PTCLDY    79  70  73 SW7       29.97F
N MYRTLE BCH   MOCLDY    79  71  76 SW8       29.95F
CONWAY         FAIR      73  73 100 SW5       29.95F FOG
MARION         FAIR      73  72  94 SW5       29.95S
HARTSVILLE     FAIR      73  64  73 W5        29.95S
FLORENCE       CLOUDY    76  71  85 SW6       29.94F
DARLINGTON     CLOUDY    75  66  73 SW10      29.94S
CHARLESTON APT PTCLDY    76  70  82 SW8       29.97F
MOUNT PLEASANT LGT RAIN  77  73  88 SW3       29.97F
WALTERBORO     PTSUNNY   72  68  88 SW6       29.99F
BEAUFORT       MOCLDY    72  69  90 SW5       30.00F


...EASTERN GEORGIA...

CITY           SKY/WX    TMP DP  RH WIND       PRES   REMARKS
AUGUSTA BUSH F PTCLDY    68  66  93 CALM      29.99F
AUGUSTA DANIEL PTCLDY    72  66  81 CALM      30.00F
SAVANNAH       MOCLDY    75  66  73 SW3       30.01F


...SOUTHERN NORTH CAROLINA...

CITY           SKY/WX    TMP DP  RH WIND       PRES   REMARKS
CHARLOTTE      CLOUDY    72  64  76 W6        29.96S
MONROE         CLOUDY    74  64  71 W7        29.94F
ASHEVILLE      MOCLDY    66  62  87 CALM      30.02F

$$



USA.gov is the U.S. government's official web portal to all federal, state and local government web resources and services.